Volver al catálogo

MERCURY ONE

M1

ActivoCienciaSSO
NORAD 66742·PAYLOAD·🇺🇸 United States

Lanzado Nov 28, 2025 desde Vandenberg Space Force Base

Loading…

Próximos Pases (próximas 24 horas)

TLE

ActualizadoSource: Space-Track

Época: Sep 14, 2026, 11:14 UTC

1 66742U 25276CE  26257.46822029  .00003395  00000-0  15960-3 0  9996
2 66742  97.4117 329.4927 0003146  49.3519 310.7990 15.20258512 43981

Sigue MERCURY ONE en tiempo real con AllMySat

Download on the App Store